Location: The Saddle
(36.8333°N, 80.3417°W)
Time: 10:22:48
(UTC-05:00)

Explorer 11/Cluster Stage 4 - Visible Passes

Search period start: 02 December 2023 00:00
Search period end: 12 December 2023 00:00
Orbit: 465 x 1228 km, 28.8° (Epoch: 02 December)

Date Brightness Start Highest point End Pass type
(mag) Time Alt. Az. Time Alt. Az. Time Alt. Az.
02 Dec 8.0 18:26:20 10° WSW 18:30:10 23° SSW 18:33:29 10° SE visible
03 Dec 8.2 18:10:15 10° WSW 18:14:16 23° SSW 18:17:44 10° SE visible
04 Dec 8.4 17:54:06 10° WSW 17:58:20 23° SSW 18:01:56 10° SE visible
05 Dec 8.6 17:37:56 10° WSW 17:42:21 23° SSW 17:46:07 10° SSE visible
